Kalamazoo, MI

12:36 PM EDT on May 26, 2017 (GMT -0400)
Kalamazoo-Battle Creek International

Weather History for KAZO - April, 2013

Change the Weather History Date:

Thursday, April 25, 2013

  Actual Average Record
Temperature  
Mean Temperature 43 °F 52 °F  
Max Temperature 51 °F 64 °F 87 °F (1990)
Min Temperature 34 °F 42 °F 25 °F (1967)
Degree Days  
Heating Degree Days 22 13  
Month to date heating degree days 517 427  
Since 1 July heating degree days 6087 6084  
Cooling Degree Days 0 0  
Month to date cooling degree days 0 0  
Year to date cooling degree days 0 0  
Moisture  
Dew Point 31 °F    
Average Humidity 62    
Maximum Humidity 85    
Minimum Humidity 38    
Precipitation  
Precipitation 0.10 in 0.11 in 1.80 in (1976)
Month to date precipitation 5.64 2.42  
Year to date precipitation 10.98 7.91  
Sea Level Pressure  
Sea Level Pressure 30.20 in    
Wind  
Wind Speed 11 mph (WSW)    
Max Wind Speed 24 mph    
Max Gust Speed 32 mph    
Visibility 9 miles    
Events Rain    
T = Trace of Precipitation, MM = Missing Value Source: NWS Daily Summary

Daily Weather History Graph

Daily Weather History Graph

Search for Another Location

Airport or City:

Trip Planner

Search our weather history database for the weather conditions in past years. The results will help you decide how hot, cold, wet, or windy it might be!

Date:

Astronomy

Apr. 25, 2013 Rise Set
Actual Time 6:45 AM EDT 8:35 PM EDT
Civil Twilight 6:15 AM EDT 9:05 PM EDT
Nautical Twilight 5:39 AM EDT 9:41 PM EDT
Astronomical Twilight 4:59 AM EDT 10:21 PM EDT
Moon 8:48 PM EDT (4/25) 6:28 AM EDT (4/25)
Length of Visible Light 14h 49m
Length of Day
13h 49m
Full, 100% of the Moon is Illuminated
Apr 25
Full
Apr 25
Full
May 2
Last Quarter
May 9
New
May 18
First Quarter

Hourly Weather History & Observations

Time (EDT) Temp. Windchill Dew Point Humidity Pressure Visibility Wind Dir Wind Speed Gust Speed Precip Events Conditions
12:53 AM 37.0 °F 30.4 °F 28.9 °F 73% 30.15 in 10.0 mi SSW 9.2 mph - N/A   Clear
1:53 AM 37.9 °F 30.9 °F 30.0 °F 73% 30.14 in 10.0 mi SSW 10.4 mph - N/A   Clear
2:53 AM 37.0 °F 31.0 °F 30.0 °F 76% 30.13 in 10.0 mi SSW 8.1 mph - N/A   Clear
3:53 AM 34.0 °F 28.0 °F 28.9 °F 82% 30.12 in 10.0 mi SSW 6.9 mph - N/A   Clear
4:53 AM 35.1 °F 27.9 °F 30.0 °F 82% 30.11 in 10.0 mi South 9.2 mph - N/A   Clear
5:53 AM 37.0 °F 28.9 °F 30.9 °F 79% 30.11 in 10.0 mi South 12.7 mph - N/A   Clear
6:53 AM 37.0 °F 28.5 °F 30.9 °F 79% 30.10 in 9.0 mi South 13.8 mph - N/A   Scattered Clouds
7:53 AM 39.0 °F 31.8 °F 32.0 °F 76% 30.11 in 9.0 mi SSW 11.5 mph - N/A   Mostly Cloudy
8:04 AM 37.4 °F 28.9 °F 32.0 °F 81% 30.08 in 3.0 mi SW 13.8 mph 21.9 mph 0.01 in Rain Rain
8:53 AM 39.0 °F 32.8 °F 36.0 °F 89% 30.11 in 7.0 mi SW 9.2 mph - 0.02 in   Overcast
9:53 AM 41.0 °F 34.3 °F 36.0 °F 82% 30.12 in 9.0 mi SSW 11.5 mph - 0.00 in   Overcast
10:53 AM 44.1 °F 37.4 °F 39.0 °F 82% 30.14 in 9.0 mi WSW 13.8 mph 19.6 mph 0.05 in   Mostly Cloudy
11:53 AM 46.9 °F - 37.0 °F 68% 30.15 in 10.0 mi WSW 17.3 mph 23.0 mph N/A   Mostly Cloudy
12:53 PM 45.0 °F 38.9 °F 37.9 °F 76% 30.19 in 8.0 mi WNW 12.7 mph 19.6 mph 0.03 in Rain Light Rain
1:53 PM 46.9 °F - 32.0 °F 56% 30.21 in 10.0 mi WNW 17.3 mph 24.2 mph N/A   Mostly Cloudy
2:53 PM 48.0 °F - 30.9 °F 52% 30.23 in 10.0 mi WNW 16.1 mph 23.0 mph N/A   Mostly Cloudy
3:53 PM 48.9 °F - 27.0 °F 43% 30.25 in 10.0 mi NW 19.6 mph 27.6 mph N/A   Mostly Cloudy
4:53 PM 51.1 °F - 27.0 °F 39% 30.26 in 10.0 mi NW 12.7 mph 26.5 mph N/A   Mostly Cloudy
5:53 PM 46.9 °F - 26.1 °F 44% 30.28 in 10.0 mi WNW 13.8 mph 21.9 mph N/A   Mostly Cloudy
6:53 PM 48.0 °F - 28.9 °F 48% 30.30 in 10.0 mi WNW 11.5 mph - N/A   Scattered Clouds
7:53 PM 46.0 °F 41.0 °F 28.9 °F 51% 30.31 in 10.0 mi WNW 10.4 mph - N/A   Partly Cloudy
8:53 PM 43.0 °F 40.3 °F 30.0 °F 60% 30.33 in 10.0 mi West 4.6 mph - N/A   Partly Cloudy
9:53 PM 41.0 °F - 30.0 °F 65% 30.35 in 10.0 mi Calm Calm - N/A   Clear
10:53 PM 39.0 °F 36.8 °F 30.0 °F 70% 30.36 in 10.0 mi SSW 3.5 mph - N/A   Clear
11:53 PM 39.9 °F 37.8 °F 30.9 °F 70% 30.37 in 10.0 mi South 3.5 mph - N/A   Clear